Weather reports worldwide

Advertisment
Chiavari, Italy (16123): temperature & dewpoint: 15.05.2019 16:00:00 - 21.05.2019 16:00:00 (CEST)Chiavari, Italy (16123): wind speed: 15.05.2019 16:00:00 - 21.05.2019 16:00:00 (CEST)Chiavari, Italy (16123): wind direction: 15.05.2019 16:00:00 - 21.05.2019 16:00:00 (CEST)Chiavari, Italy (16123): reduced air pressure: 15.05.2019 16:00:00 - 21.05.2019 16:00:00 (CEST)
Date & Time tt [°C] td [°C] ff [km/h] ff [kn] dd ppp [hPa]
21.05.2019 16:00:00 - - - - - -
21.05.2019 15:00:00 18,8 14,4 18 10 SSW 1012,0
21.05.2019 14:00:00 18,8 14,4 16 9 SW 1011,7
21.05.2019 13:00:00 18,2 14,4 15 8 S 1011,6
21.05.2019 12:00:00 18,3 14,3 16 9 S 1011,1
21.05.2019 11:00:00 17,1 13,9 8 4 W 1010,7
21.05.2019 10:00:00 14,8 12,6 8 4 NE 1010,3
21.05.2019 09:00:00 13,9 11,9 9 5 ENE 1009,9
21.05.2019 08:00:00 13,0 11,5 11 6 NE 1009,5
21.05.2019 07:00:00 12,8 11,4 13 7 NE 1009,2
21.05.2019 06:00:00 12,8 11,4 13 7 NE 1008,9
21.05.2019 05:00:00 12,9 11,5 8 4 ENE 1008,8
21.05.2019 04:00:00 13,2 11,7 9 5 NNE 1009,1
21.05.2019 03:00:00 13,4 11,8 8 4 NNE 1009,3
21.05.2019 02:00:00 13,4 11,8 9 5 NE 1009,3
21.05.2019 01:00:00 13,5 11,9 9 5 NNE 1009,7
21.05.2019 00:00:00 13,6 11,8 9 5 NE 1009,5
20.05.2019 23:00:00 13,7 11,7 8 4 NNE 1009,3
20.05.2019 22:00:00 14,0 11,8 9 5 N 1008,9
20.05.2019 21:00:00 14,5 12,0 5 3 NE 1008,6
20.05.2019 20:00:00 15,4 13,2 5 3 N 1008,4
20.05.2019 19:00:00 15,6 13,4 4 2 NNE 1008,4
20.05.2019 18:00:00 15,8 13,4 0 0 N 1008,3
20.05.2019 17:00:00 15,6 12,7 5 3 S 1008,2
20.05.2019 16:00:00 15,1 13,1 8 4 SSW 1007,9
20.05.2019 15:00:00 15,0 13,5 4 2 WSW 1007,8
20.05.2019 14:00:00 15,0 13,3 11 6 SSW 1007,5
20.05.2019 13:00:00 14,6 13,1 9 5 SSW 1007,0
20.05.2019 12:00:00 14,7 13,4 11 6 SW 1006,8
20.05.2019 11:00:00 14,2 12,9 9 5 S 1006,4
20.05.2019 10:00:00 14,3 13,0 11 6 SW 1005,8
20.05.2019 09:00:00 13,8 12,5 5 3 NNE 1005,6
20.05.2019 08:00:00 13,3 12,0 4 2 NE 1005,2
20.05.2019 07:00:00 13,2 11,9 4 2 ENE 1004,9
20.05.2019 06:00:00 13,3 12,0 5 3 NNE 1004,9
20.05.2019 05:00:00 13,3 11,8 4 2 NNE 1004,8
20.05.2019 04:00:00 13,4 12,1 5 3 NNE 1004,9
20.05.2019 03:00:00 13,4 12,1 5 3 ENE 1005,1
20.05.2019 02:00:00 13,5 12,0 4 2 ENE 1005,4
20.05.2019 01:00:00 13,7 12,1 4 2 NE 1005,6
20.05.2019 00:00:00 13,9 12,3 4 2 NE 1005,7
19.05.2019 23:00:00 14,0 12,4 5 3 NE 1005,8
19.05.2019 22:00:00 14,5 12,8 2 1 NNE 1005,5
19.05.2019 21:00:00 14,4 12,6 4 2 SE 1005,2
19.05.2019 20:00:00 15,5 12,4 9 5 S 1004,8
19.05.2019 19:00:00 16,2 11,9 5 3 W 1004,5
19.05.2019 18:00:00 16,4 12,5 11 6 SSW 1004,5
19.05.2019 17:00:00 16,0 12,3 8 4 S 1004,3
19.05.2019 16:00:00 16,1 12,0 8 4 SSW 1004,4
19.05.2019 15:00:00 16,2 11,9 8 4 SW 1004,3
19.05.2019 14:00:00 16,4 12,9 13 7 S 1004,0
19.05.2019 13:00:00 15,8 12,7 5 3 SW 1003,8
19.05.2019 12:00:00 16,0 11,9 9 5 SSW 1003,7
19.05.2019 11:00:00 15,6 12,7 4 2 WSW 1003,7
19.05.2019 10:00:00 14,7 12,7 0 0 N 1003,6
19.05.2019 09:00:00 13,9 12,3 4 2 NE 1003,6
19.05.2019 08:00:00 13,3 12,0 8 4 NE 1003,4
19.05.2019 07:00:00 12,9 11,5 5 3 ENE 1003,5
19.05.2019 06:00:00 13,1 11,6 9 5 NE 1003,4
19.05.2019 05:00:00 13,3 11,8 11 6 N 1003,6
19.05.2019 04:00:00 13,4 11,9 9 5 NNE 1004,0
19.05.2019 03:00:00 13,6 12,0 9 5 ENE 1004,5
19.05.2019 02:00:00 13,8 12,2 8 4 NNE 1005,1
19.05.2019 01:00:00 14,5 11,8 8 4 ENE 1005,3
19.05.2019 00:00:00 15,3 11,6 9 5 N 1005,2
18.05.2019 23:00:00 15,5 11,2 9 5 N 1005,1
18.05.2019 22:00:00 15,9 11,0 5 3 NE 1005,0
18.05.2019 21:00:00 16,2 11,9 9 5 NNE 1004,6
18.05.2019 20:00:00 16,9 13,2 5 3 N 1004,3
18.05.2019 19:00:00 17,5 12,1 2 1 NW 1004,0
18.05.2019 18:00:00 17,4 12,7 8 4 NNE 1003,9
18.05.2019 17:00:00 16,5 12,6 2 1 N 1004,0
18.05.2019 16:00:00 16,0 11,7 8 4 NNE 1003,8
18.05.2019 15:00:00 16,0 11,7 11 6 NNE 1004,0
18.05.2019 14:00:00 16,5 9,1 9 5 N 1004,2
18.05.2019 13:00:00 17,1 6,8 15 8 ENE 1003,9
18.05.2019 12:00:00 16,5 7,6 13 7 NE 1003,6
18.05.2019 11:00:00 16,6 8,5 16 9 NE 1003,1
18.05.2019 10:00:00 15,8 9,6 18 10 ENE 1002,9
18.05.2019 09:00:00 14,0 11,7 13 7 NNE 1003,1
18.05.2019 08:00:00 13,4 11,4 13 7 NNE 1003,2
18.05.2019 07:00:00 13,3 11,2 13 7 NNE 1003,3
18.05.2019 06:00:00 13,5 10,8 2 1 NE 1003,8
18.05.2019 05:00:00 13,6 10,6 9 5 N 1003,4
18.05.2019 04:00:00 13,8 10,9 16 9 NE 1003,9
18.05.2019 03:00:00 13,8 10,7 15 8 NE 1004,7
18.05.2019 02:00:00 14,0 10,8 11 6 NE 1005,3
18.05.2019 01:00:00 14,1 10,5 13 7 NE 1005,9
18.05.2019 00:00:00 14,3 10,5 5 3 NNE 1007,1
17.05.2019 23:00:00 14,8 10,4 0 0 N 1007,2
17.05.2019 22:00:00 15,4 10,3 4 2 NNE 1007,0
17.05.2019 21:00:00 16,2 8,1 8 4 NE 1006,3
17.05.2019 20:00:00 16,9 5,7 4 2 N 1006,6
17.05.2019 19:00:00 17,7 6,5 5 3 NE 1006,7
17.05.2019 18:00:00 17,6 6,1 2 1 SE 1007,2
17.05.2019 17:00:00 17,4 5,9 8 4 WSW 1007,6
17.05.2019 16:00:00 17,7 6,8 5 3 SSW 1008,1
17.05.2019 15:00:00 17,9 7,0 15 8 SW 1008,5
17.05.2019 14:00:00 17,3 7,3 8 4 SW 1008,2
17.05.2019 13:00:00 16,7 10,5 11 6 SW 1008,7
17.05.2019 12:00:00 15,8 10,1 9 5 S 1008,9
17.05.2019 11:00:00 16,2 10,0 9 5 S 1008,5
17.05.2019 10:00:00 15,7 8,9 5 3 WSW 1008,7
17.05.2019 09:00:00 12,2 7,5 5 3 N 1009,0
17.05.2019 08:00:00 9,7 6,7 13 7 NNE 1009,1
17.05.2019 07:00:00 8,8 6,4 11 6 NE 1009,3
17.05.2019 06:00:00 8,7 6,3 15 8 ENE 1008,8
17.05.2019 05:00:00 8,8 6,2 11 6 E 1009,2
17.05.2019 04:00:00 9,2 6,6 15 8 NE 1009,9
17.05.2019 03:00:00 9,4 7,5 11 6 NNE 1010,2
17.05.2019 02:00:00 9,9 7,5 11 6 NE 1010,4
17.05.2019 01:00:00 10,5 7,9 9 5 NE 1010,9
17.05.2019 00:00:00 11,2 8,2 11 6 ENE 1010,8
16.05.2019 23:00:00 12,2 8,6 9 5 NE 1011,3
16.05.2019 22:00:00 13,7 8,7 5 3 N 1011,0
16.05.2019 21:00:00 15,6 7,3 2 1 SSE 1010,6
16.05.2019 20:00:00 16,4 6,4 8 4 SW 1010,4
16.05.2019 19:00:00 16,9 6,3 8 4 SSW 1010,3
16.05.2019 18:00:00 17,0 7,3 11 6 S 1010,6
16.05.2019 17:00:00 17,4 6,8 9 5 SW 1010,7
16.05.2019 16:00:00 - - - - - -
16.05.2019 15:00:00 17,4 5,6 11 6 SW 1011,4
16.05.2019 14:00:00 17,0 4,9 13 7 S 1011,3
16.05.2019 13:00:00 16,5 5,4 11 6 W 1011,5
16.05.2019 12:00:00 16,3 6,1 11 6 WSW 1011,8
16.05.2019 11:00:00 16,2 6,0 9 5 SW 1012,1
16.05.2019 10:00:00 15,1 5,2 8 4 SW 1012,2
16.05.2019 09:00:00 12,7 5,5 5 3 N 1012,3
16.05.2019 08:00:00 9,9 5,6 9 5 ENE 1012,5
16.05.2019 07:00:00 8,7 4,8 8 4 ENE 1012,2
16.05.2019 06:00:00 9,3 4,8 8 4 E 1011,8
16.05.2019 05:00:00 10,6 3,8 4 2 N 1011,6
16.05.2019 04:00:00 11,3 3,0 8 4 NE 1011,5
16.05.2019 03:00:00 10,0 4,9 15 8 N 1011,6
16.05.2019 02:00:00 10,5 4,3 9 5 NE 1012,2
16.05.2019 01:00:00 11,2 3,6 11 6 NNW 1012,6
16.05.2019 00:00:00 11,6 3,0 4 2 W 1013,1
15.05.2019 23:00:00 11,9 3,6 5 3 NNE 1013,1
15.05.2019 22:00:00 14,2 2,0 4 2 E 1012,8
15.05.2019 21:00:00 15,3 0,6 11 6 NE 1012,3
15.05.2019 20:00:00 15,6 0,9 13 7 NNE 1012,0
15.05.2019 19:00:00 16,4 0,8 9 5 NE 1011,8
15.05.2019 18:00:00 16,1 0,9 13 7 E 1011,6
15.05.2019 17:00:00 15,7 0,9 28 15 E 1011,6
15.05.2019 16:00:00 15,2 1,6 28 15 ENE 1011,9

tt = temperature
td = dewpoint
ff = wind speed
dd = wind direction
ppp = reduced air pressure

Next stations